Location: Beutels
(47.8767°N, 9.8584°E)
Time: 21:34:50
(UTC+00:00)

CZ-4C R/B - Pass Details

Date: 19 May 2025
Orbit: 501 x 1482 km, 63.4° (Epoch: 14 June)

Event Time Altitude Azimuth Distance (km) Brightness Sun altitude
Rises 19:28:24 0° 318° (NW) 3,706 7.7 -5.1°
Reaches altitude 10° 19:30:46 10° 318° (NW) 2,884 6.7 -5.4°
Maximum altitude 19:37:50 81° 232° (SW) 1,265 3.2 -6.3°
Drops below altitude 10° 19:46:31 10° 147° (SSE) 3,504 4.8 -7.4°
Enters shadow 19:47:22 - 147° (SSE) 3,786 4.9 -7.5°
